| time (UTC) | temp F | wind direction | speed MPH | gust MPH | rain 1hr in | rain 24hr in | rain mn in | humidity % | barometer mb |
| 20260510230553 | 70 | 328 | 2.0 | 6.0 | 0.00 | 0.00 | 0.00 | 74 | 1017.8 |
| 20260510230058 | 70 | 343 | 3.0 | 6.0 | 0.00 | 0.00 | 0.00 | 73 | 1017.8 |
| 20260510225552 | 70 | 327 | 2.0 | 10.0 | 0.00 | 0.00 | 0.00 | 73 | 1017.7 |
| 20260510225052 | 70 | 5 | 4.0 | 10.0 | 0.00 | 0.00 | 0.00 | 72 | 1017.9 |
| 20260510224606 | 71 | 327 | 4.0 | 9.0 | 0.00 | 0.00 | 0.00 | 72 | 1017.8 |
| 20260510224055 | 71 | 344 | 2.0 | 6.0 | 0.00 | 0.00 | 0.00 | 75 | 1017.9 |
| 20260510223551 | 71 | 344 | 3.0 | 8.0 | 0.00 | 0.00 | 0.00 | 74 | 1017.7 |
| 20260510223057 | 71 | 346 | 3.0 | 12.0 | 0.00 | 0.00 | 0.00 | 74 | 1017.7 |
| 20260510222551 | 71 | 336 | 7.0 | 12.0 | 0.00 | 0.00 | 0.00 | 74 | 1017.8 |
| 20260510222051 | 71 | 350 | 4.0 | 9.0 | 0.00 | 0.00 | 0.00 | 76 | 1017.6 |
| 20260510221550 | 71 | 355 | 3.0 | 6.0 | 0.00 | 0.00 | 0.00 | 75 | 1017.6 |
| 20260510221050 | 71 | 340 | 3.0 | 9.0 | 0.00 | 0.00 | 0.00 | 76 | 1017.7 |
| 20260510220550 | 71 | 334 | 4.0 | 9.0 | 0.00 | 0.00 | 0.00 | 76 | 1017.7 |
| 20260510220057 | 71 | 351 | 3.0 | 10.0 | 0.00 | 0.00 | 0.00 | 76 | 1017.6 |
| 20260510215549 | 71 | 5 | 4.0 | 10.0 | 0.00 | 0.00 | 0.00 | 75 | 1017.6 |
| 20260510215049 | 71 | 360 | 3.0 | 6.0 | 0.00 | 0.00 | 0.00 | 75 | 1017.7 |
| 20260510214550 | 71 | 331 | 3.0 | 10.0 | 0.00 | 0.00 | 0.00 | 74 | 1017.7 |
| 20260510214049 | 71 | 338 | 3.0 | 8.0 | 0.00 | 0.00 | 0.00 | 73 | 1017.8 |
| 20260510213550 | 71 | 14 | 3.0 | 8.0 | 0.00 | 0.00 | 0.00 | 73 | 1017.9 |
| 20260510213112 | 71 | 313 | 3.0 | 9.0 | 0.00 | 0.00 | 0.00 | 73 | 1017.7 |
| 20260510212549 | 71 | 322 | 3.0 | 13.0 | 0.00 | 0.00 | 0.00 | 74 | 1017.8 |
| 20260510212049 | 71 | 331 | 5.0 | 13.0 | 0.00 | 0.00 | 0.00 | 74 | 1017.8 |
| 20260510211548 | 72 | 320 | 6.0 | 12.0 | 0.00 | 0.00 | 0.00 | 73 | 1017.8 |
| 20260510211047 | 72 | 355 | 3.0 | 11.0 | 0.00 | 0.00 | 0.00 | 75 | 1017.8 |
| 20260510210551 | 72 | 360 | 5.0 | 12.0 | 0.00 | 0.00 | 0.00 | 73 | 1017.6 |
| 20260510210051 | 72 | 14 | 7.0 | 14.0 | 0.00 | 0.00 | 0.00 | 73 | 1017.5 |
| 20260510205547 | 72 | 355 | 7.0 | 17.0 | 0.00 | 0.00 | 0.00 | 74 | 1017.6 |
| 20260510205048 | 72 | 360 | 8.0 | 17.0 | 0.00 | 0.00 | 0.00 | 74 | 1017.5 |
| 20260510204603 | 72 | 21 | 6.0 | 14.0 | 0.00 | 0.00 | 0.00 | 75 | 1017.5 |
| 20260510204046 | 72 | 343 | 5.0 | 14.0 | 0.00 | 0.00 | 0.00 | 76 | 1017.6 |
| 20260510203546 | 72 | 324 | 5.0 | 11.0 | 0.00 | 0.00 | 0.00 | 77 | 1017.6 |
| 20260510203046 | 72 | 344 | 3.0 | 15.0 | 0.00 | 0.00 | 0.00 | 78 | 1017.6 |
| 20260510202548 | 72 | 344 | 7.0 | 15.0 | 0.00 | 0.00 | 0.00 | 75 | 1017.7 |
| 20260510202048 | 73 | 331 | 6.0 | 15.0 | 0.00 | 0.00 | 0.00 | 75 | 1017.8 |
| 20260510201549 | 74 | 341 | 7.0 | 13.0 | 0.00 | 0.00 | 0.00 | 76 | 1017.8 |
| 20260510201044 | 74 | 312 | 6.0 | 14.0 | 0.00 | 0.00 | 0.00 | 76 | 1017.7 |
| 20260510200544 | 75 | 342 | 7.0 | 14.0 | 0.00 | 0.00 | 0.00 | 77 | 1017.7 |
| 20260510200049 | 75 | 346 | 7.0 | 14.0 | 0.00 | 0.00 | 0.00 | 76 | 1017.7 |
| 20260510195543 | 75 | 320 | 7.0 | 14.0 | 0.00 | 0.00 | 0.00 | 76 | 1017.7 |
| 20260510195043 | 76 | 321 | 4.0 | 20.0 | 0.00 | 0.00 | 0.00 | 76 | 1017.4 |
| 20260510194542 | 77 | 308 | 8.0 | 20.0 | 0.00 | 0.00 | 0.00 | 74 | 1017.4 |
| 20260510194142 | 78 | 299 | 4.0 | 9.0 | 0.00 | 0.00 | 0.00 | 71 | 1017.4 |
| 20260510193541 | 79 | 324 | 4.0 | 9.0 | 0.00 | 0.00 | 0.00 | 69 | 1017.4 |
| 20260510193042 | 79 | 253 | 3.0 | 9.0 | 0.00 | 0.00 | 0.00 | 71 | 1017.4 |
| 20260510192540 | 79 | 254 | 1.0 | 10.0 | 0.00 | 0.00 | 0.00 | 74 | 1017.3 |
| 20260510192039 | 78 | 261 | 5.0 | 10.0 | 0.00 | 0.00 | 0.00 | 70 | 1017.3 |
| 20260510191539 | 79 | 28 | 1.0 | 8.0 | 0.00 | 0.00 | 0.00 | 72 | 1017.3 |
| 20260510191037 | 79 | 273 | 5.0 | 8.0 | 0.00 | 0.00 | 0.00 | 74 | 1017.2 |
| 20260510190537 | 79 | 273 | 3.0 | 8.0 | 0.00 | 0.00 | 0.00 | 73 | 1017.3 |
| 20260510190048 | 78 | 263 | 4.0 | 8.0 | 0.00 | 0.00 | 0.00 | 74 | 1017.2 |
| 20260510185538 | 78 | 292 | 3.0 | 9.0 | 0.00 | 0.00 | 0.00 | 69 | 1017.3 |
| 20260510185034 | 78 | 252 | 5.0 | 9.0 | 0.00 | 0.00 | 0.00 | 73 | 1017.1 |
| 20260510184536 | 77 | 263 | 4.0 | 9.0 | 0.00 | 0.00 | 0.00 | 76 | 1017.3 |
| 20260510184033 | 77 | 296 | 6.0 | 9.0 | 0.00 | 0.00 | 0.00 | 74 | 1017.3 |
| 20260510183533 | 77 | 304 | 5.0 | 9.0 | 0.00 | 0.00 | 0.00 | 70 | 1017.2 |
| 20260510183033 | 77 | 267 | 5.0 | 9.0 | 0.00 | 0.00 | 0.00 | 70 | 1017.2 |
| 20260510182532 | 77 | 315 | 4.0 | 6.0 | 0.00 | 0.00 | 0.00 | 70 | 1017.2 |
| 20260510182033 | 77 | 274 | 1.0 | 12.0 | 0.00 | 0.00 | 0.00 | 70 | 1017.2 |
| 20260510181533 | 77 | 259 | 5.0 | 12.0 | 0.00 | 0.00 | 0.00 | 72 | 1017.2 |
| 20260510181030 | 77 | 245 | 2.0 | 5.0 | 0.00 | 0.00 | 0.00 | 74 | 1017.2 |
| 20260510180529 | 77 | 229 | 3.0 | 8.0 | 0.00 | 0.00 | 0.00 | 75 | 1017.3 |
| 20260510180032 | 76 | 257 | 4.0 | 10.0 | 0.00 | 0.00 | 0.00 | 75 | 1017.2 |
| 20260510175530 | 76 | 290 | 5.0 | 10.0 | 0.00 | 0.00 | 0.00 | 74 | 1017.3 |
| 20260510175025 | 75 | 295 | 1.0 | 9.0 | 0.00 | 0.00 | 0.00 | 74 | 1017.4 |
| 20260510174524 | 75 | 281 | 4.0 | 8.0 | 0.00 | 0.00 | 0.00 | 75 | 1017.6 |
| 20260510174023 | 75 | 294 | 2.0 | 8.0 | 0.00 | 0.00 | 0.00 | 74 | 1017.7 |
| 20260510173525 | 75 | 300 | 3.0 | 7.0 | 0.00 | 0.00 | 0.00 | 75 | 1017.7 |
| 20260510173021 | 75 | 122 | 3.0 | 7.0 | 0.00 | 0.00 | 0.00 | 75 | 1017.8 |
| 20260510172521 | 75 | 15 | 2.0 | 6.0 | 0.00 | 0.00 | 0.00 | 75 | 1017.9 |
| 20260510172020 | 75 | 22 | 2.0 | 6.0 | 0.00 | 0.00 | 0.00 | 77 | 1017.9 |
| 20260510171525 | 75 | 5 | 2.0 | 8.0 | 0.00 | 0.00 | 0.00 | 73 | 1018.0 |
| 20260510171017 | 74 | 250 | 5.0 | 8.0 | 0.00 | 0.00 | 0.00 | 77 | 1017.9 |
| 20260510170517 | 74 | 331 | 0.0 | 5.0 | 0.00 | 0.00 | 0.00 | 76 | 1018.0 |
| 20260510170018 | 73 | 336 | 1.0 | 8.0 | 0.00 | 0.00 | 0.00 | 77 | 1018.0 |
| 20260510165518 | 73 | 340 | 3.0 | 8.0 | 0.00 | 0.00 | 0.00 | 76 | 1018.0 |
| 20260510165016 | 74 | 328 | 2.0 | 8.0 | 0.00 | 0.00 | 0.00 | 74 | 1018.1 |
| 20260510164517 | 74 | 291 | 2.0 | 5.0 | 0.00 | 0.00 | 0.00 | 76 | 1018.1 |
| 20260510164016 | 74 | 338 | 3.0 | 10.0 | 0.00 | 0.00 | 0.00 | 76 | 1018.1 |
| 20260510163517 | 74 | 26 | 5.0 | 10.0 | 0.00 | 0.00 | 0.00 | 74 | 1017.9 |
| 20260510163017 | 74 | 45 | 4.0 | 10.0 | 0.00 | 0.00 | 0.00 | 74 | 1017.9 |
| 20260510162515 | 74 | 338 | 2.0 | 8.0 | 0.00 | 0.00 | 0.00 | 73 | 1017.9 |
| 20260510162018 | 74 | 360 | 4.0 | 9.0 | 0.00 | 0.00 | 0.00 | 74 | 1017.8 |
| 20260510161513 | 73 | 283 | 5.0 | 11.0 | 0.00 | 0.00 | 0.00 | 75 | 1017.8 |
| 20260510161012 | 73 | 279 | 5.0 | 9.0 | 0.00 | 0.00 | 0.00 | 75 | 1017.7 |
| 20260510160511 | 72 | 325 | 2.0 | 10.0 | 0.00 | 0.00 | 0.00 | 76 | 1017.7 |
| 20260510160013 | 71 | 311 | 4.0 | 10.0 | 0.00 | 0.00 | 0.00 | 77 | 1017.6 |
| 20260510155508 | 71 | 286 | 4.0 | 10.0 | 0.00 | 0.00 | 0.00 | 78 | 1017.7 |
| 20260510155007 | 71 | 332 | 1.0 | 8.0 | 0.00 | 0.00 | 0.00 | 79 | 1017.5 |
| 20260510154507 | 70 | 341 | 4.0 | 8.0 | 0.00 | 0.00 | 0.00 | 78 | 1017.5 |
| 20260510154006 | 70 | 275 | 3.0 | 10.0 | 0.00 | 0.00 | 0.00 | 78 | 1017.4 |
| 20260510153504 | 70 | 302 | 5.0 | 10.0 | 0.00 | 0.00 | 0.00 | 80 | 1017.4 |
| 20260510153004 | 70 | 355 | 3.0 | 6.0 | 0.00 | 0.00 | 0.00 | 82 | 1017.3 |
| 20260510152503 | 70 | 317 | 2.0 | 6.0 | 0.00 | 0.00 | 0.00 | 81 | 1017.2 |
| 20260510152004 | 70 | 325 | 2.0 | 8.0 | 0.00 | 0.00 | 0.00 | 79 | 1017.1 |
| 20260510151600 | 69 | 320 | 2.0 | 8.0 | 0.00 | 0.00 | 0.00 | 81 | 1017.0 |
| 20260510151101 | 69 | 323 | 2.0 | 7.0 | 0.00 | 0.00 | 0.00 | 83 | 1017.0 |
| 20260510150600 | 69 | 304 | 3.0 | 8.0 | 0.00 | 0.00 | 0.00 | 82 | 1017.0 |
| 20260510150100 | 69 | 313 | 3.0 | 8.0 | 0.00 | 0.00 | 0.00 | 83 | 1016.9 |
| 20260510145558 | 69 | 9 | 3.0 | 6.0 | 0.00 | 0.00 | 0.00 | 83 | 1016.9 |
| 20260510145102 | 70 | 334 | 2.0 | 6.0 | 0.00 | 0.00 | 0.00 | 82 | 1016.8 |
| 20260510144607 | 70 | 14 | 2.0 | 4.0 | 0.00 | 0.00 | 0.00 | 83 | 1016.8 |
| 20260510144057 | 69 | 16 | 0.0 | 5.0 | 0.00 | 0.00 | 0.00 | 84 | 1016.7 |
| 20260510143557 | 69 | 13 | 1.0 | 5.0 | 0.00 | 0.00 | 0.00 | 84 | 1016.8 |
| 20260510143057 | 69 | 5 | 1.0 | 6.0 | 0.00 | 0.00 | 0.00 | 84 | 1016.8 |
| 20260510142557 | 69 | 5 | 4.0 | 6.0 | 0.00 | 0.00 | 0.00 | 84 | 1016.8 |
| 20260510142055 | 69 | 29 | 2.0 | 4.0 | 0.00 | 0.00 | 0.00 | 83 | 1016.8 |
| 20260510141554 | 69 | 132 | 1.0 | 2.0 | 0.00 | 0.00 | 0.00 | 84 | 1016.6 |
| 20260510141056 | 68 | 132 | 0.0 | 5.0 | 0.00 | 0.00 | 0.00 | 85 | 1016.5 |
| 20260510140551 | 68 | 133 | 2.0 | 5.0 | 0.00 | 0.00 | 0.00 | 86 | 1016.5 |
| 20260510140050 | 67 | 132 | 2.0 | 4.0 | 0.00 | 0.00 | 0.00 | 86 | 1016.6 |
| 20260510135549 | 67 | 127 | 2.0 | 4.0 | 0.00 | 0.00 | 0.00 | 87 | 1016.5 |
| 20260510135050 | 66 | 127 | 1.0 | 4.0 | 0.00 | 0.00 | 0.00 | 87 | 1016.6 |
| 20260510134550 | 66 | 126 | 2.0 | 4.0 | 0.00 | 0.00 | 0.00 | 90 | 1016.6 |
| 20260510134047 | 65 | 126 | 2.0 | 4.0 | 0.00 | 0.00 | 0.00 | 89 | 1016.7 |
| 20260510133546 | 65 | 125 | 1.0 | 4.0 | 0.00 | 0.00 | 0.00 | 90 | 1016.8 |
| 20260510133043 | 64 | 125 | 2.0 | 4.0 | 0.00 | 0.00 | 0.00 | 91 | 1016.7 |
| 20260510132544 | 64 | 124 | 2.0 | 4.0 | 0.00 | 0.00 | 0.00 | 93 | 1016.7 |
| 20260510132041 | 63 | 124 | 2.0 | 4.0 | 0.00 | 0.00 | 0.00 | 93 | 1016.6 |
| 20260510131543 | 62 | 123 | 1.0 | 3.0 | 0.00 | 0.00 | 0.00 | 94 | 1016.6 |
| 20260510131037 | 0 | 123 | 0.0 | 2.0 | 0.00 | 0.00 | 0.00 | 1016.5 | |
| 20260510130536 | 0 | 123 | 0.0 | 4.0 | 0.00 | 0.00 | 0.00 | 1016.5 | |
| 20260510130033 | 0 | 123 | 0.0 | 4.0 | 0.00 | 0.00 | 0.00 | 1016.5 | |
| 20260510125532 | 0 | 0.0 | 0.0 | 0.00 | 0.00 | 0.00 | 1016.3 | ||
| 20260510125033 | 0 | 0.0 | 0.0 | 0.00 | 0.00 | 0.00 | 1016.3 | ||
| 20260510124530 | 0 | 0.0 | 0.0 | 0.00 | 0.00 | 0.00 | 1016.4 | ||
| 20260510124029 | 0 | 0.0 | 0.0 | 0.00 | 0.00 | 0.00 | 1016.4 | ||
| 20260510123025 | 0 | 59 | 0.0 | 2.0 | 0.00 | 0.00 | 0.00 | 1016.3 | |
| 20260510122526 | 0 | 0.0 | 0.0 | 0.00 | 0.00 | 0.00 | 1016.2 | ||
| 20260510122021 | 0 | 0.0 | 0.0 | 0.00 | 0.00 | 0.00 | 1016.1 | ||
| 20260510121519 | 0 | 0.0 | 0.0 | 0.00 | 0.00 | 0.00 | 1016.0 | ||
| 20260510121018 | 0 | 59 | 0.0 | 0.0 | 0.00 | 0.00 | 0.00 | 1015.9 | |
| 20260510120519 | 0 | 59 | 0.0 | 0.0 | 0.00 | 0.00 | 0.00 | 1015.8 | |
| 20260510120016 | 53 | 59 | 0.0 | 0.0 | 0.00 | 0.00 | 0.00 | 100 | 1015.8 |
| 20260510115514 | 0 | 0.0 | 0.0 | 0.00 | 0.00 | 0.00 | 1015.6 | ||
| 20260510115013 | 0 | 0.0 | 0.0 | 0.00 | 0.00 | 0.00 | 1015.5 | ||
| 20260510114511 | 0 | 0.0 | 0.0 | 0.00 | 0.00 | 0.00 | 1015.5 | ||
| 20260510114011 | 50 | 59 | 0.0 | 1.0 | 0.00 | 0.00 | 0.00 | 100 | 1015.5 |
| 20260510113510 | 50 | 59 | 0.0 | 1.0 | 0.00 | 0.00 | 0.00 | 100 | 1015.3 |
| 20260510113008 | 0 | 0.0 | 0.0 | 0.00 | 0.00 | 0.00 | 1015.1 | ||
| 20260510112507 | 0 | 0.0 | 0.0 | 0.00 | 0.00 | 0.00 | 1015.2 | ||
| 20260510112006 | 0 | 0.0 | 0.0 | 0.00 | 0.00 | 0.00 | 1015.2 | ||
| 20260510111504 | 0 | 0.0 | 0.0 | 0.00 | 0.00 | 0.00 | 1015.2 | ||
| 20260510111002 | 0 | 0.0 | 0.0 | 0.00 | 0.00 | 0.00 | 1015.2 | ||
| 20260510110502 | 0 | 0.0 | 0.0 | 0.00 | 0.00 | 0.00 | 1015.1 | ||
| 20260510110104 | 0 | 0.0 | 0.0 | 0.00 | 0.00 | 0.00 | 1015.1 | ||
| 20260510105559 | 0 | 0.0 | 0.0 | 0.00 | 0.00 | 0.00 | 1015.1 | ||
| 20260510105056 | 0 | 0.0 | 0.0 | 0.00 | 0.00 | 0.00 | 1015.1 | ||
| 20260510104556 | 0 | 0.0 | 0.0 | 0.00 | 0.00 | 0.00 | 1015.2 | ||
| 20260510104056 | 0 | 0.0 | 0.0 | 0.00 | 0.00 | 0.00 | 1015.0 | ||
| 20260510103553 | 0 | 0.0 | 0.0 | 0.00 | 0.00 | 0.00 | 1015.1 | ||
| 20260510103054 | 0 | 0.0 | 0.0 | 0.00 | 0.00 | 0.00 | 1014.9 | ||
| 20260510102550 | 0 | 0.0 | 0.0 | 0.00 | 0.00 | 0.00 | 1015.0 | ||
| 20260510102048 | 0 | 0.0 | 0.0 | 0.00 | 0.00 | 0.00 | 1015.1 | ||
| 20260510101559 | 0 | 0.0 | 0.0 | 0.00 | 0.00 | 0.00 | 1015.1 | ||
| 20260510101045 | 0 | 0.0 | 0.0 | 0.00 | 0.00 | 0.00 | 1015.0 | ||
| 20260510100544 | 0 | 0.0 | 0.0 | 0.00 | 0.00 | 0.00 | 1015.2 | ||
| 20260510100050 | 0 | 0.0 | 0.0 | 0.00 | 0.00 | 0.00 | 1014.9 | ||
| 20260510095540 | 0 | 0.0 | 0.0 | 0.00 | 0.00 | 0.00 | 1015.0 | ||
| 20260510095139 | 0 | 0.0 | 0.0 | 0.00 | 0.00 | 0.00 | 1015.1 | ||
| 20260510094547 | 0 | 0.0 | 0.0 | 0.00 | 0.00 | 0.00 | 1015.0 | ||
| 20260510094037 | 0 | 0.0 | 0.0 | 0.00 | 0.00 | 0.00 | 1014.6 | ||
| 20260510093535 | 0 | 0.0 | 0.0 | 0.00 | 0.00 | 0.00 | 1015.0 | ||
| 20260510093037 | 0 | 0.0 | 0.0 | 0.00 | 0.00 | 0.00 | 1014.4 | ||
| 20260510092533 | 0 | 0.0 | 0.0 | 0.00 | 0.00 | 0.00 | 1014.3 | ||
| 20260510092031 | 0 | 0.0 | 0.0 | 0.00 | 0.00 | 0.00 | 1014.2 | ||
| 20260510091028 | 0 | 0.0 | 0.0 | 0.00 | 0.00 | 0.00 | 1014.3 | ||
| 20260510090527 | 0 | 0.0 | 0.0 | 0.00 | 0.00 | 0.00 | 1014.2 | ||
| 20260510090025 | 0 | 0.0 | 0.0 | 0.00 | 0.00 | 0.00 | 1014.1 | ||
| 20260510085523 | 0 | 0.0 | 0.0 | 0.00 | 0.00 | 0.00 | 1014.1 | ||
| 20260510085024 | 0 | 0.0 | 0.0 | 0.00 | 0.00 | 0.00 | 1014.1 | ||
| 20260510084521 | 0 | 0.0 | 0.0 | 0.00 | 0.00 | 0.00 | 1013.9 | ||
| 20260510084019 | 0 | 0.0 | 0.0 | 0.00 | 0.00 | 0.00 | 1013.9 | ||
| 20260510083518 | 0 | 0.0 | 0.0 | 0.00 | 0.00 | 0.00 | 1013.9 | ||
| 20260510083016 | 0 | 0.0 | 0.0 | 0.00 | 0.00 | 0.00 | 1013.9 | ||
| 20260510082515 | 0 | 0.0 | 0.0 | 0.00 | 0.00 | 0.00 | 1013.9 | ||
| 20260510082016 | 0 | 0.0 | 0.0 | 0.00 | 0.00 | 0.00 | 1013.9 | ||
| 20260510081512 | 0 | 0.0 | 0.0 | 0.00 | 0.00 | 0.00 | 1013.8 | ||
| 20260510081010 | 0 | 0.0 | 0.0 | 0.00 | 0.00 | 0.00 | 1013.6 | ||
| 20260510080514 | 0 | 0.0 | 0.0 | 0.00 | 0.00 | 0.00 | 1013.6 | ||
| 20260510080018 | 0 | 0.0 | 0.0 | 0.00 | 0.00 | 0.00 | 1013.8 | ||
| 20260510075506 | 0 | 0.0 | 0.0 | 0.00 | 0.00 | 0.00 | 1013.8 | ||
| 20260510075005 | 0 | 0.0 | 0.0 | 0.00 | 0.00 | 0.00 | 1013.8 | ||
| 20260510074504 | 0 | 0.0 | 0.0 | 0.00 | 0.00 | 0.00 | 1013.9 | ||
| 20260510074004 | 0 | 0.0 | 0.0 | 0.00 | 0.00 | 0.00 | 1013.9 | ||
| 20260510073600 | 0 | 0.0 | 0.0 | 0.00 | 0.00 | 0.00 | 1013.7 | ||
| 20260510073100 | 0 | 0.0 | 0.0 | 0.00 | 0.00 | 0.00 | 1013.9 | ||
| 20260510072558 | 0 | 0.0 | 0.0 | 0.00 | 0.00 | 0.00 | 1013.8 | ||
| 20260510072058 | 0 | 0.0 | 0.0 | 0.00 | 0.00 | 0.00 | 1013.6 | ||
| 20260510071555 | 0 | 0.0 | 0.0 | 0.00 | 0.00 | 0.00 | 1013.6 | ||
| 20260510071053 | 0 | 0.0 | 0.0 | 0.00 | 0.00 | 0.00 | 1013.4 | ||
| 20260510070552 | 0 | 0.0 | 0.0 | 0.00 | 0.00 | 0.00 | 1013.5 | ||
| 20260510065549 | 0 | 0.0 | 0.0 | 0.00 | 0.00 | 0.00 | 1013.3 | ||
| 20260510065048 | 0 | 0.0 | 0.0 | 0.00 | 0.00 | 0.00 | 1013.3 | ||
| 20260510064548 | 0 | 0.0 | 0.0 | 0.00 | 0.00 | 0.00 | 1013.3 | ||
| 20260510064044 | 0 | 0.0 | 0.0 | 0.00 | 0.00 | 0.00 | 1013.4 | ||
| 20260510063543 | 0 | 0.0 | 0.0 | 0.00 | 0.00 | 0.00 | 1013.4 | ||
| 20260510063042 | 0 | 0.0 | 0.0 | 0.00 | 0.00 | 0.00 | 1013.4 | ||
| 20260510062540 | 0 | 0.0 | 0.0 | 0.00 | 0.00 | 0.00 | 1013.5 | ||
| 20260510062039 | 0 | 0.0 | 0.0 | 0.00 | 0.00 | 0.00 | 1013.4 | ||
| 20260510061537 | 0 | 0.0 | 0.0 | 0.00 | 0.00 | 0.00 | 1013.4 | ||
| 20260510061036 | 0 | 0.0 | 0.0 | 0.00 | 0.00 | 0.00 | 1013.4 | ||
| 20260510060535 | 0 | 0.0 | 0.0 | 0.00 | 0.00 | 0.00 | 1013.4 | ||
| 20260510060040 | 0 | 0.0 | 0.0 | 0.00 | 0.00 | 0.00 | 1013.4 | ||
| 20260510055537 | 0 | 0.0 | 0.0 | 0.00 | 0.00 | 0.00 | 1013.4 | ||
| 20260510055030 | 0 | 0.0 | 0.0 | 0.00 | 0.00 | 0.00 | 1013.4 | ||
| 20260510054529 | 0 | 0.0 | 0.0 | 0.00 | 0.00 | 0.00 | 1013.3 | ||
| 20260510054027 | 0 | 0.0 | 0.0 | 0.00 | 0.00 | 0.00 | 1013.2 | ||
| 20260510053626 | 0 | 0.0 | 0.0 | 0.00 | 0.00 | 0.00 | 1013.3 | ||
| 20260510053024 | 0 | 0.0 | 0.0 | 0.00 | 0.00 | 0.00 | 1013.2 | ||
| 20260510052523 | 0 | 0.0 | 0.0 | 0.00 | 0.00 | 0.00 | 1013.3 | ||
| 20260510052021 | 0 | 0.0 | 0.0 | 0.00 | 0.00 | 0.00 | 1013.3 | ||
| 20260510051520 | 0 | 0.0 | 0.0 | 0.00 | 0.00 | 0.00 | 1013.3 | ||
| 20260510051018 | 0 | 0.0 | 0.0 | 0.00 | 0.00 | 0.00 | 1013.2 | ||
| 20260510050516 | 0 | 0.0 | 0.0 | 0.00 | 0.00 | 0.00 | 1013.4 | ||
| 20260510050015 | 0 | 0.0 | 0.0 | 0.00 | 0.00 | 0.00 | 1013.3 | ||
| 20260510045518 | 0 | 0.0 | 0.0 | 0.00 | 0.00 | 0.00 | 1013.2 | ||
| 20260510045013 | 0 | 0.0 | 0.0 | 0.00 | 0.00 | 0.00 | 1013.3 | ||
| 20260510044512 | 0 | 0.0 | 0.0 | 0.00 | 0.00 | 0.00 | 1013.3 | ||
| 20260510044013 | 0 | 0.0 | 0.0 | 0.00 | 0.00 | 0.00 | 1013.2 | ||
| 20260510043515 | 0 | 0.0 | 0.0 | 0.00 | 0.00 | 0.00 | 1013.3 | ||
| 20260510043007 | 0 | 0.0 | 0.0 | 0.00 | 0.00 | 0.00 | 1013.3 | ||
| 20260510042506 | 0 | 0.0 | 0.0 | 0.00 | 0.00 | 0.00 | 1013.3 | ||
| 20260510042005 | 0 | 0.0 | 0.0 | 0.00 | 0.00 | 0.00 | 1013.4 | ||
| 20260510041502 | 0 | 0.0 | 0.0 | 0.00 | 0.00 | 0.00 | 1013.4 | ||
| 20260510041101 | 0 | 0.0 | 0.0 | 0.00 | 0.00 | 0.00 | 1013.3 | ||
| 20260510040559 | 0 | 0.0 | 0.0 | 0.00 | 0.00 | 0.00 | 1013.3 | ||
| 20260510040107 | 0 | 0.0 | 0.0 | 0.00 | 0.00 | 0.00 | 1013.3 | ||
| 20260510035556 | 0 | 0.0 | 0.0 | 0.00 | 0.00 | 0.00 | 1013.3 | ||
| 20260510035055 | 0 | 0.0 | 0.0 | 0.00 | 0.00 | 0.00 | 1013.3 | ||
| 20260510034554 | 0 | 0.0 | 0.0 | 0.00 | 0.00 | 0.00 | 1013.2 | ||
| 20260510034052 | 0 | 0.0 | 0.0 | 0.00 | 0.00 | 0.00 | 1013.3 | ||
| 20260510033550 | 0 | 0.0 | 0.0 | 0.00 | 0.00 | 0.00 | 1013.2 | ||
| 20260510033056 | 0 | 0.0 | 0.0 | 0.00 | 0.00 | 0.00 | 1013.3 | ||
| 20260510032548 | 0 | 0.0 | 0.0 | 0.00 | 0.00 | 0.00 | 1013.3 | ||
| 20260510032046 | 0 | 0.0 | 0.0 | 0.00 | 0.00 | 0.00 | 1013.4 | ||
| 20260510031548 | 0 | 0.0 | 0.0 | 0.00 | 0.00 | 0.00 | 1013.3 | ||
| 20260510031043 | 0 | 0.0 | 0.0 | 0.00 | 0.00 | 0.00 | 1013.4 | ||
| 20260510030541 | 0 | 0.0 | 0.0 | 0.00 | 0.00 | 0.00 | 1013.3 | ||
| 20260510030042 | 0 | 0.0 | 0.0 | 0.00 | 0.00 | 0.00 | 1013.3 | ||
| 20260510025539 | 0 | 0.0 | 0.0 | 0.00 | 0.00 | 0.00 | 1013.2 | ||
| 20260510025038 | 0 | 0.0 | 0.0 | 0.00 | 0.00 | 0.00 | 1013.2 | ||
| 20260510024637 | 0 | 0.0 | 0.0 | 0.00 | 0.00 | 0.00 | 1013.3 | ||
| 20260510024034 | 0 | 0.0 | 0.0 | 0.00 | 0.00 | 0.00 | 1013.2 | ||
| 20260510023533 | 0 | 0.0 | 0.0 | 0.00 | 0.00 | 0.00 | 1013.2 | ||
| 20260510023032 | 0 | 0.0 | 0.0 | 0.00 | 0.00 | 0.00 | 1013.1 | ||
| 20260510022531 | 0 | 0.0 | 0.0 | 0.00 | 0.00 | 0.00 | 1013.1 | ||
| 20260510022030 | 0 | 0.0 | 0.0 | 0.00 | 0.00 | 0.00 | 1013.0 | ||
| 20260510021606 | 0 | 0.0 | 0.0 | 0.00 | 0.00 | 0.00 | 1012.9 | ||
| 20260510020524 | 0 | 0.0 | 0.0 | 0.00 | 0.00 | 0.00 | 1012.8 | ||
| 20260510020023 | 0 | 0.0 | 0.0 | 0.00 | 0.00 | 0.00 | 1012.6 | ||
| 20260510015521 | 0 | 0.0 | 0.0 | 0.00 | 0.00 | 0.00 | 1012.5 | ||
| 20260510015020 | 0 | 0.0 | 0.0 | 0.00 | 0.00 | 0.00 | 1012.4 | ||
| 20260510014531 | 0 | 0.0 | 0.0 | 0.00 | 0.00 | 0.00 | 1012.3 | ||
| 20260510014017 | 0 | 0.0 | 0.0 | 0.00 | 0.00 | 0.00 | 1012.2 | ||
| 20260510013520 | 0 | 0.0 | 0.0 | 0.00 | 0.00 | 0.00 | 1012.2 | ||
| 20260510013014 | 0 | 0.0 | 0.0 | 0.00 | 0.00 | 0.00 | 1012.1 | ||
| 20260510012515 | 0 | 0.0 | 0.0 | 0.00 | 0.00 | 0.00 | 1012.1 | ||
| 20260510012016 | 0 | 0.0 | 0.0 | 0.00 | 0.00 | 0.00 | 1012.0 | ||
| 20260510011515 | 0 | 0.0 | 0.0 | 0.00 | 0.00 | 0.00 | 1011.9 | ||
| 20260510011008 | 0 | 0.0 | 0.0 | 0.00 | 0.00 | 0.00 | 1011.9 | ||
| 20260510010507 | 0 | 0.0 | 0.0 | 0.00 | 0.00 | 0.00 | 1011.8 | ||
| 20260510010015 | 0 | 0.0 | 0.0 | 0.00 | 0.00 | 0.00 | 1011.7 | ||
| 20260510005504 | 0 | 0.0 | 0.0 | 0.00 | 0.00 | 0.00 | 1011.7 | ||
| 20260510005003 | 0 | 0.0 | 0.0 | 0.00 | 0.00 | 0.00 | 1011.7 | ||
| 20260510004501 | 0 | 0.0 | 0.0 | 0.00 | 0.00 | 0.00 | 1011.5 | ||
| 20260510004100 | 0 | 0.0 | 0.0 | 0.00 | 0.00 | 0.00 | 1011.5 | ||
| 20260510003559 | 0 | 0.0 | 0.0 | 0.00 | 0.00 | 0.00 | 1011.4 | ||
| 20260510003105 | 0 | 0.0 | 0.0 | 0.00 | 0.00 | 0.00 | 1011.4 | ||
| 20260510002559 | 0 | 0.0 | 0.0 | 0.00 | 0.00 | 0.00 | 1011.3 | ||
| 20260510002054 | 0 | 0.0 | 0.0 | 0.00 | 0.00 | 0.00 | 1011.4 | ||
| 20260510001553 | 0 | 0.0 | 0.0 | 0.00 | 0.00 | 0.00 | 1011.2 | ||
| 20260510001051 | 0 | 0.0 | 0.0 | 0.00 | 0.00 | 0.00 | 1011.0 | ||
| 20260510000550 | 0 | 0.0 | 0.0 | 0.00 | 0.00 | 0.00 | 1011.1 | ||
| 20260510000049 | 0 | 0.0 | 0.0 | 0.00 | 0.00 | 0.00 | 1011.1 | ||
| 20260509235647 | 0 | 0.0 | 0.0 | 0.00 | 0.00 | 0.00 | 1011.0 | ||
| 20260509235045 | 0 | 0.0 | 0.0 | 0.00 | 0.00 | 0.00 | 1011.0 | ||
| 20260509234544 | 0 | 0.0 | 0.0 | 0.00 | 0.00 | 0.00 | 1011.1 | ||
| 20260509234043 | 0 | 0.0 | 0.0 | 0.00 | 0.00 | 0.00 | 1010.9 | ||
| 20260509233041 | 0 | 229 | 5.0 | 7.0 | 0.00 | 0.00 | 0.00 | 1011.0 | |
| 20260509232539 | 79 | 238 | 5.0 | 8.0 | 0.00 | 0.00 | 0.00 | 56 | 1011.0 |
| 20260509232039 | 79 | 244 | 4.0 | 8.0 | 0.00 | 0.00 | 0.00 | 54 | 1011.1 |
| 20260509231538 | 80 | 254 | 5.0 | 8.0 | 0.00 | 0.00 | 0.00 | 54 | 1011.0 |
| 20260509231039 | 80 | 207 | 5.0 | 8.0 | 0.00 | 0.00 | 0.00 | 53 | 1011.1 |